�������l�o���
Date,Time,MP-1(��Sv/h),MP-2(��Sv/h),MP-3(��Sv/h),MP-4(��Sv/h),MP-5(��Sv/h),MP-6(��Sv/h),MP-7(��Sv/h),����,����(m/s),���J
2021/11/23,00:00,0.168,0.156,0.233,0.229,0.238,0.137,0.094,�k��,6.3,�L
2021/11/23,00:10,0.166,0.155,0.232,0.228,0.235,0.133,0.091,�k��,6.5,�L
2021/11/23,00:20,0.164,0.152,0.229,0.226,0.234,0.132,0.090,�k�k��,3.9,��
2021/11/23,00:30,0.162,0.150,0.228,0.224,0.233,0.129,0.088,�k��,6.1,��
2021/11/23,00:40,0.160,0.150,0.227,0.223,0.231,0.128,0.086,�k��,7.4,�L
2021/11/23,00:50,0.160,0.147,0.226,0.221,0.230,0.126,0.085,�k�k��,8.5,�L
2021/11/23,01:00,0.159,0.146,0.223,0.220,0.228,0.126,0.083,�k��,7.5,��
2021/11/23,01:10,0.159,0.145,0.224,0.220,0.226,0.124,0.082,�k��,6.4,��
2021/11/23,01:20,0.157,0.146,0.223,0.218,0.227,0.124,0.082,�k��,7.3,��
2021/11/23,01:30,0.156,0.145,0.222,0.217,0.225,0.124,0.080,�k��,7.5,��
2021/11/23,01:40,0.157,0.144,0.222,0.218,0.227,0.122,0.079,�k��,5.7,��
2021/11/23,01:50,0.156,0.143,0.221,0.217,0.226,0.121,0.079,�k��,5.7,��
2021/11/23,02:00,0.157,0.143,0.222,0.217,0.226,0.122,0.079,�k�k��,3.7,��
2021/11/23,02:10,0.156,0.144,0.222,0.217,0.226,0.122,0.078,�k�k��,4.2,��
2021/11/23,02:20,0.155,0.142,0.221,0.216,0.223,0.120,0.079,�k�k��,4.9,��
2021/11/23,02:30,0.156,0.143,0.221,0.217,0.225,0.120,0.078,�k,3.8,��
2021/11/23,02:40,0.155,0.143,0.220,0.217,0.223,0.120,0.078,�k�k��,5.0,��
2021/11/23,02:50,0.155,0.141,0.221,0.216,0.224,0.121,0.078,�k�k��,4.2,��
2021/11/23,03:00,0.155,0.142,0.222,0.217,0.224,0.120,0.077,�k��,4.1,��
2021/11/23,03:10,0.154,0.143,0.221,0.216,0.223,0.121,0.078,�k�k��,3.2,��
2021/11/23,03:20,0.155,0.142,0.221,0.215,0.225,0.120,0.078,�k�k��,5.8,��
2021/11/23,03:30,0.154,0.144,0.221,0.217,0.224,0.121,0.078,�k�k��,8.4,��
2021/11/23,03:40,0.155,0.142,0.222,0.216,0.223,0.120,0.078,�k�k��,4.4,��
2021/11/23,03:50,0.157,0.142,0.222,0.217,0.224,0.120,0.078,�k��,6.5,��
2021/11/23,04:00,0.155,0.143,0.222,0.217,0.223,0.120,0.078,�k�k��,8.8,��
2021/11/23,04:10,0.155,0.143,0.222,0.217,0.224,0.120,0.078,�k��,7.3,��
2021/11/23,04:20,0.156,0.143,0.223,0.217,0.224,0.121,0.078,�k��,6.4,��
2021/11/23,04:30,0.155,0.142,0.222,0.217,0.225,0.121,0.078,�k��,4.5,��
2021/11/23,04:40,0.156,0.143,0.221,0.218,0.224,0.121,0.078,���k��,7.6,��
2021/11/23,04:50,0.156,0.143,0.223,0.217,0.225,0.121,0.078,���k��,6.7,��
2021/11/23,05:00,0.155,0.142,0.222,0.218,0.224,0.121,0.078,�k�k��,9.0,��
2021/11/23,05:10,0.156,0.142,0.221,0.218,0.224,0.121,0.077,�k��,4.6,��
2021/11/23,05:20,0.156,0.142,0.224,0.217,0.225,0.120,0.078,��쐼,2.6,��
2021/11/23,05:30,0.156,0.143,0.222,0.217,0.225,0.121,0.078,���k��,6.0,��
2021/11/23,05:40,0.156,0.143,0.221,0.218,0.223,0.121,0.078,�k��,5.3,��
2021/11/23,05:50,0.157,0.142,0.222,0.218,0.225,0.122,0.078,�k��,2.7,��
2021/11/23,06:00,0.155,0.142,0.222,0.217,0.224,0.121,0.078,�k��,5.6,��
2021/11/23,06:10,0.155,0.143,0.223,0.218,0.223,0.122,0.078,�k��,5.8,��
2021/11/23,06:20,0.156,0.143,0.223,0.217,0.226,0.121,0.078,�k�k��,5.5,��
2021/11/23,06:30,0.155,0.143,0.222,0.218,0.223,0.120,0.078,�k�k��,3.2,��
2021/11/23,06:40,0.156,0.143,0.223,0.217,0.224,0.121,0.078,�k��,6.4,��
2021/11/23,06:50,0.155,0.143,0.222,0.218,0.225,0.121,0.078,�k��,8.2,��
2021/11/23,07:00,0.155,0.144,0.222,0.217,0.224,0.121,0.078,�k��,8.7,��
2021/11/23,07:10,0.156,0.142,0.222,0.217,0.225,0.121,0.078,�k��,8.4,��
2021/11/23,07:20,0.156,0.143,0.223,0.218,0.224,0.122,0.078,���k��,9.0,��
2021/11/23,07:30,0.155,0.145,0.223,0.217,0.224,0.122,0.078,�k��,6.2,��
2021/11/23,07:40,0.155,0.144,0.223,0.218,0.224,0.120,0.078,�k��,4.2,��
2021/11/23,07:50,0.157,0.143,0.223,0.218,0.225,0.121,0.078,�k��,3.2,��
2021/11/23,08:00,0.156,0.144,0.224,0.218,0.225,0.121,0.078,�k��,3.5,��
2021/11/23,08:10,0.156,0.143,0.222,0.217,0.225,0.121,0.078,�쓌,1.3,��
2021/11/23,08:20,0.156,0.143,0.223,0.218,0.226,0.121,0.077,��,3.3,��
2021/11/23,08:30,0.156,0.144,0.223,0.217,0.226,0.121,0.077,���k��,5.9,��
2021/11/23,08:40,0.155,0.143,0.223,0.217,0.225,0.121,0.078,���k��,7.4,��
2021/11/23,08:50,0.156,0.144,0.223,0.219,0.225,0.122,0.079,���k��,10.6,��
2021/11/23,09:00,0.156,0.144,0.224,0.218,0.225,0.122,0.078,��,10.7,��
2021/11/23,09:10,0.156,0.143,0.224,0.217,0.224,0.121,0.079,���k��,11.5,��
2021/11/23,09:20,0.156,0.143,0.223,0.218,0.227,0.122,0.078,��,11.1,��
2021/11/23,09:30,0.156,0.143,0.223,0.217,0.224,0.122,0.078,��,8.1,��
2021/11/23,09:40,0.156,0.143,0.223,0.219,0.225,0.122,0.078,�쐼,1.6,��
2021/11/23,09:50,0.156,0.143,0.223,0.217,0.226,0.122,0.079,�쐼,1.3,��
2021/11/23,10:00,0.157,0.143,0.222,0.219,0.224,0.122,0.077,��,1.3,��
2021/11/23,10:10,0.156,0.143,0.223,0.218,0.225,0.123,0.079,��,7.1,��
2021/11/23,10:20,0.156,0.143,0.222,0.220,0.224,0.122,0.078,��,5.5,��
2021/11/23,10:30,0.155,0.143,0.224,0.218,0.226,0.122,0.078,��,2.5,��
2021/11/23,10:40,0.158,0.143,0.221,0.218,0.225,0.122,0.079,���k��,5.5,��
2021/11/23,10:50,0.156,0.144,0.223,0.219,0.225,0.122,0.079,��,6.8,��
2021/11/23,11:00,0.156,0.144,0.223,0.219,0.226,0.122,0.079,���k��,5.8,��
2021/11/23,11:10,0.155,0.144,0.222,0.219,0.225,0.123,0.078,��,3.4,��
2021/11/23,11:20,0.157,0.143,0.223,0.218,0.226,0.122,0.079,�k�k��,1.6,��
2021/11/23,11:30,0.157,0.144,0.223,0.219,0.225,0.123,0.079,��,10.9,��
2021/11/23,11:40,0.156,0.142,0.223,0.217,0.224,0.123,0.079,��,7.6,��
2021/11/23,11:50,0.156,0.143,0.223,0.218,0.225,0.122,0.078,���쐼,4.5,��
2021/11/23,12:00,0.156,0.143,0.224,0.220,0.224,0.123,0.079,���쐼,5.6,��
2021/11/23,12:10,0.156,0.143,0.225,0.218,0.225,0.123,0.079,���쐼,5.9,��
2021/11/23,12:20,0.157,0.143,0.224,0.218,0.223,0.123,0.078,��쐼,4.3,��
2021/11/23,12:30,0.155,0.144,0.223,0.219,0.225,0.122,0.078,�쐼,2.2,��
2021/11/23,12:40,0.156,0.142,0.223,0.217,0.224,0.123,0.077,�쐼,1.0,��
2021/11/23,12:50,0.156,0.144,0.223,0.220,0.224,0.123,0.079,��,3.6,��
2021/11/23,13:00,0.154,0.143,0.225,0.218,0.225,0.123,0.078,���쐼,3.7,��
2021/11/23,13:10,0.156,0.145,0.224,0.218,0.227,0.123,0.078,���쐼,2.6,��
2021/11/23,13:20,0.156,0.143,0.225,0.219,0.226,0.123,0.079,���쐼,2.5,��
2021/11/23,13:30,0.156,0.144,0.223,0.217,0.226,0.122,0.078,���쐼,1.7,��
2021/11/23,13:40,0.157,0.144,0.224,0.220,0.224,0.123,0.079,��,5.0,��
2021/11/23,13:50,0.156,0.143,0.223,0.218,0.222,0.122,0.078,��,7.1,��
2021/11/23,14:00,0.157,0.144,0.225,0.219,0.225,0.123,0.078,��,6.9,��
2021/11/23,14:10,0.157,0.143,0.224,0.218,0.225,0.124,0.080,��,6.4,��
2021/11/23,14:20,0.157,0.144,0.223,0.220,0.223,0.123,0.078,��,6.2,��
2021/11/23,14:30,0.157,0.144,0.225,0.219,0.226,0.123,0.079,��,5.3,��
2021/11/23,14:40,0.157,0.144,0.224,0.219,0.225,0.123,0.078,��,5.4,��
2021/11/23,14:50,0.158,0.144,0.225,0.221,0.226,0.123,0.079,��,3.2,��
2021/11/23,15:00,0.157,0.144,0.225,0.220,0.227,0.123,0.079,��,2.8,��
2021/11/23,15:10,0.158,0.144,0.223,0.219,0.225,0.122,0.078,��,2.8,��
2021/11/23,15:20,0.157,0.145,0.225,0.221,0.226,0.123,0.078,���k��,3.1,��
2021/11/23,15:30,0.157,0.145,0.224,0.220,0.225,0.122,0.079,���쐼,2.9,��
2021/11/23,15:40,0.157,0.144,0.225,0.220,0.227,0.123,0.078,���쐼,2.1,��
2021/11/23,15:50,0.156,0.144,0.223,0.221,0.226,0.122,0.079,���쐼,2.5,��
2021/11/23,16:00,0.157,0.144,0.224,0.220,0.226,0.123,0.078,���쐼,2.1,��
2021/11/23,16:10,0.157,0.144,0.224,0.220,0.226,0.123,0.079,���쐼,2.8,��
2021/11/23,16:20,0.156,0.144,0.224,0.220,0.225,0.123,0.078,��,4.9,��
2021/11/23,16:30,0.157,0.144,0.224,0.218,0.226,0.122,0.078,��,5.3,��
2021/11/23,16:40,0.157,0.145,0.225,0.220,0.225,0.123,0.079,��,5.3,��
2021/11/23,16:50,0.156,0.144,0.226,0.219,0.225,0.123,0.078,��,6.1,��
2021/11/23,17:00,0.158,0.144,0.224,0.221,0.226,0.125,0.078,��,5.8,��
2021/11/23,17:10,0.157,0.144,0.224,0.221,0.226,0.124,0.078,���k��,7.3,��
2021/11/23,17:20,0.157,0.144,0.226,0.221,0.226,0.123,0.079,���k��,9.2,��
2021/11/23,17:30,0.158,0.145,0.224,0.220,0.225,0.123,0.079,��,9.8,��
2021/11/23,17:40,0.157,0.143,0.224,0.221,0.225,0.123,0.078,��,9.5,��
2021/11/23,17:50,0.157,0.144,0.224,0.220,0.226,0.124,0.079,��,11.8,��
2021/11/23,18:00,0.157,0.144,0.224,0.220,0.226,0.123,0.079,���k��,12.5,��
2021/11/23,18:10,0.157,0.144,0.225,0.220,0.225,0.123,0.078,��,12.5,��
2021/11/23,18:20,0.157,0.143,0.225,0.220,0.226,0.123,0.079,���k��,10.9,��
2021/11/23,18:30,0.158,0.143,0.225,0.219,0.225,0.124,0.078,��,12.6,��
2021/11/23,18:40,0.157,0.144,0.225,0.220,0.225,0.122,0.078,��,12.2,��
2021/11/23,18:50,0.157,0.144,0.224,0.220,0.227,0.123,0.079,��,12.6,��
2021/11/23,19:00,0.159,0.144,0.225,0.219,0.224,0.124,0.078,��,12.3,��
2021/11/23,19:10,0.158,0.144,0.225,0.220,0.226,0.124,0.079,��,11.2,��
2021/11/23,19:20,0.158,0.143,0.225,0.220,0.226,0.124,0.079,��,12.5,��
2021/11/23,19:30,0.157,0.144,0.224,0.220,0.225,0.123,0.079,��,12.5,��
2021/11/23,19:40,0.156,0.144,0.225,0.220,0.225,0.124,0.078,���k��,11.2,��
2021/11/23,19:50,0.158,0.144,0.226,0.221,0.227,0.124,0.078,��,12.6,��
2021/11/23,20:00,0.158,0.144,0.224,0.221,0.225,0.124,0.079,���k��,12.2,��
2021/11/23,20:10,0.157,0.145,0.225,0.220,0.226,0.123,0.079,��,13.1,��
2021/11/23,20:20,0.157,0.143,0.224,0.219,0.227,0.123,0.079,��,13.7,��
2021/11/23,20:30,0.157,0.144,0.225,0.221,0.225,0.124,0.078,���k��,13.6,��
2021/11/23,20:40,0.157,0.144,0.225,0.221,0.226,0.124,0.078,��,13.6,��
2021/11/23,20:50,0.158,0.144,0.225,0.219,0.226,0.124,0.078,��,10.4,��
2021/11/23,21:00,0.158,0.143,0.224,0.221,0.227,0.123,0.078,��,12.0,��
2021/11/23,21:10,0.157,0.145,0.225,0.221,0.227,0.124,0.078,��,13.4,��
2021/11/23,21:20,0.157,0.143,0.225,0.220,0.225,0.123,0.079,��,13.4,��
2021/11/23,21:30,0.159,0.145,0.226,0.220,0.226,0.124,0.078,��,12.9,��
2021/11/23,21:40,0.158,0.145,0.225,0.220,0.226,0.123,0.079,��,13.3,��
2021/11/23,21:50,0.157,0.144,0.225,0.222,0.227,0.124,0.078,���k��,12.9,��
2021/11/23,22:00,0.158,0.144,0.225,0.219,0.225,0.123,0.079,��,12.2,��
2021/11/23,22:10,0.158,0.144,0.226,0.220,0.226,0.124,0.079,���k��,8.7,��
2021/11/23,22:20,0.157,0.144,0.225,0.220,0.225,0.123,0.079,��,11.5,��
2021/11/23,22:30,0.158,0.144,0.226,0.219,0.226,0.124,0.078,��,11.5,��
2021/11/23,22:40,0.157,0.143,0.226,0.221,0.226,0.125,0.078,��,11.2,��
2021/11/23,22:50,0.157,0.145,0.226,0.221,0.225,0.124,0.078,��,9.2,��
2021/11/23,23:00,0.158,0.145,0.225,0.220,0.225,0.124,0.078,��,11.8,��
2021/11/23,23:10,0.159,0.144,0.224,0.219,0.226,0.124,0.079,��,9.3,��
2021/11/23,23:20,0.158,0.145,0.224,0.221,0.225,0.123,0.079,��,10.0,��
2021/11/23,23:30,0.158,0.145,0.225,0.221,0.225,0.124,0.078,��,11.2,��
2021/11/23,23:40,0.159,0.145,0.225,0.220,0.225,0.123,0.078,��,10.7,��
2021/11/23,23:50,0.158,0.145,0.225,0.220,0.225,0.123,0.078,���k��,10.6,��
